Time,TemperatureF,DewpointF,PressureIn,WindDirection,WindDirectionDegrees,WindSpeedMPH,WindSpeedGustMPH,Humidity,HourlyPrecipIn,Conditions,Clouds,dailyrainin,SoftwareType,DateUTC
2013-08-11 00:02:00,62.0,-99.9,30.08,WSW,240,3.0,6.0,-999,-99.99,,,-99.99,,2013-08-11 05:02:00,
2013-08-11 00:21:00,62.0,-99.9,30.08,WSW,240,3.0,6.0,-999,-99.99,,,-99.99,,2013-08-11 05:21:00,
2013-08-11 00:38:00,62.0,-99.9,30.08,WSW,240,3.0,6.0,-999,-99.99,,,-99.99,,2013-08-11 05:38:00,
2013-08-11 01:05:00,63.0,-99.9,30.09,WSW,240,3.0,6.0,-999,-99.99,,,-99.99,,2013-08-11 06:05:00,
2013-08-11 01:19:00,63.0,-99.9,30.09,WSW,240,3.0,6.0,-999,-99.99,,,-99.99,,2013-08-11 06:19:00,
2013-08-11 01:27:00,63.0,-99.9,30.09,WSW,240,3.0,6.0,-999,-99.99,,,-99.99,,2013-08-11 06:27:00,
2013-08-11 01:38:00,63.0,-99.9,30.09,WSW,240,3.0,6.0,-999,-99.99,,,-99.99,,2013-08-11 06:38:00,
2013-08-11 01:40:00,63.0,-99.9,30.09,WSW,240,2.0,7.0,-999,-99.99,,,-99.99,,2013-08-11 06:40:00,
2013-08-11 02:07:00,63.0,-99.9,30.09,WSW,240,2.0,7.0,-999,-99.99,,,-99.99,,2013-08-11 07:07:00,
2013-08-11 02:17:00,63.0,-99.9,30.09,WSW,240,2.0,7.0,-999,-99.99,,,-99.99,,2013-08-11 07:17:00,
2013-08-11 02:26:00,63.0,-99.9,30.09,WSW,240,2.0,7.0,-999,-99.99,,,-99.99,,2013-08-11 07:26:00,
2013-08-11 02:39:00,63.0,-99.9,30.09,WSW,240,2.0,7.0,-999,-99.99,,,-99.99,,2013-08-11 07:39:00,
2013-08-11 02:40:00,63.0,-99.9,30.09,West,280,5.0,7.0,-999,-99.99,,,-99.99,,2013-08-11 07:40:00,
2013-08-11 03:12:00,63.0,-99.9,30.09,West,280,5.0,7.0,-999,-99.99,,,-99.99,,2013-08-11 08:12:00,
2013-08-11 03:20:00,63.0,-99.9,30.09,West,280,5.0,7.0,-999,-99.99,,,-99.99,,2013-08-11 08:20:00,
2013-08-11 03:27:00,63.0,-99.9,30.09,West,280,5.0,7.0,-999,-99.99,,,-99.99,,2013-08-11 08:27:00,
2013-08-11 03:37:00,63.0,-99.9,30.09,West,280,5.0,7.0,-999,-99.99,,,-99.99,,2013-08-11 08:37:00,
2013-08-11 03:40:00,62.0,-99.9,30.09,West,260,5.0,8.0,-999,-99.99,,,-99.99,,2013-08-11 08:40:00,
2013-08-11 04:10:00,62.0,-99.9,30.09,West,260,5.0,8.0,-999,-99.99,,,-99.99,,2013-08-11 09:10:00,
2013-08-11 04:40:00,62.0,-99.9,30.09,WSW,250,5.0,8.0,-999,-99.99,,,-99.99,,2013-08-11 09:40:00,
2013-08-11 05:07:00,62.0,-99.9,30.09,WSW,250,5.0,8.0,-999,-99.99,,,-99.99,,2013-08-11 10:07:00,
2013-08-11 05:15:00,62.0,-99.9,30.09,WSW,250,5.0,8.0,-999,-99.99,,,-99.99,,2013-08-11 10:15:00,
2013-08-11 05:29:00,62.0,-99.9,30.09,WSW,250,5.0,8.0,-999,-99.99,,,-99.99,,2013-08-11 10:29:00,
2013-08-11 05:38:00,62.0,-99.9,30.09,WSW,250,5.0,8.0,-999,-99.99,,,-99.99,,2013-08-11 10:38:00,
2013-08-11 05:40:00,61.0,-99.9,30.09,West,260,5.0,7.0,-999,-99.99,,,-99.99,,2013-08-11 10:40:00,
2013-08-11 06:17:00,61.0,-99.9,30.09,West,260,5.0,7.0,-999,-99.99,,,-99.99,,2013-08-11 11:17:00,
2013-08-11 06:25:00,61.0,-99.9,30.09,West,260,5.0,7.0,-999,-99.99,,,-99.99,,2013-08-11 11:25:00,
2013-08-11 06:40:00,62.0,-99.9,30.09,WNW,290,3.0,7.0,-999,-99.99,,,-99.99,,2013-08-11 11:40:00,
2013-08-11 07:08:00,62.0,-99.9,30.09,WNW,290,3.0,7.0,-999,-99.99,,,-99.99,,2013-08-11 12:08:00,
2013-08-11 07:16:00,62.0,-99.9,30.09,WNW,290,3.0,7.0,-999,-99.99,,,-99.99,,2013-08-11 12:16:00,
2013-08-11 07:31:00,62.0,-99.9,30.09,WNW,290,3.0,7.0,-999,-99.99,,,-99.99,,2013-08-11 12:31:00,
2013-08-11 07:38:00,62.0,-99.9,30.09,WNW,290,3.0,7.0,-999,-99.99,,,-99.99,,2013-08-11 12:38:00,
2013-08-11 07:40:00,63.0,-99.9,30.09,West,260,2.0,7.0,-999,-99.99,,,-99.99,,2013-08-11 12:40:00,
2013-08-11 08:07:00,63.0,-99.9,30.09,West,260,2.0,7.0,-999,-99.99,,,-99.99,,2013-08-11 13:07:00,
2013-08-11 08:17:00,63.0,-99.9,30.09,West,260,2.0,7.0,-999,-99.99,,,-99.99,,2013-08-11 13:17:00,
2013-08-11 08:27:00,63.0,-99.9,30.09,West,260,2.0,7.0,-999,-99.99,,,-99.99,,2013-08-11 13:27:00,
2013-08-11 08:40:00,68.0,-99.9,30.09,East,100,2.0,3.0,-999,-99.99,,,-99.99,,2013-08-11 13:40:00,
2013-08-11 09:19:00,68.0,-99.9,30.09,East,100,2.0,3.0,-999,-99.99,,,-99.99,,2013-08-11 14:19:00,
2013-08-11 09:25:00,68.0,-99.9,30.09,East,100,2.0,3.0,-999,-99.99,,,-99.99,,2013-08-11 14:25:00,
2013-08-11 09:40:00,70.0,-99.9,30.08,North,0,0.0,5.0,-999,-99.99,,,-99.99,,2013-08-11 14:40:00,
2013-08-11 10:09:00,70.0,-99.9,30.08,North,0,0.0,5.0,-999,-99.99,,,-99.99,,2013-08-11 15:09:00,
2013-08-11 10:24:00,70.0,-99.9,30.08,North,0,0.0,5.0,-999,-99.99,,,-99.99,,2013-08-11 15:24:00,
2013-08-11 10:40:00,67.0,-99.9,30.09,East,100,5.0,5.0,-999,-99.99,,,-99.99,,2013-08-11 15:40:00,
2013-08-11 11:12:00,67.0,-99.9,30.09,East,100,5.0,5.0,-999,-99.99,,,-99.99,,2013-08-11 16:12:00,
2013-08-11 11:29:00,67.0,-99.9,30.09,East,100,5.0,5.0,-999,-99.99,,,-99.99,,2013-08-11 16:29:00,
2013-08-11 11:40:00,68.0,-99.9,30.08,ESE,110,5.0,5.0,-999,-99.99,,,-99.99,,2013-08-11 16:40:00,
2013-08-11 12:09:00,68.0,-99.9,30.08,ESE,110,5.0,5.0,-999,-99.99,,,-99.99,,2013-08-11 17:09:00,
2013-08-11 12:15:00,68.0,-99.9,30.08,ESE,110,5.0,5.0,-999,-99.99,,,-99.99,,2013-08-11 17:15:00,
2013-08-11 12:27:00,68.0,-99.9,30.08,ESE,110,5.0,5.0,-999,-99.99,,,-99.99,,2013-08-11 17:27:00,
2013-08-11 12:38:00,68.0,-99.9,30.08,ESE,110,5.0,5.0,-999,-99.99,,,-99.99,,2013-08-11 17:38:00,
2013-08-11 12:40:00,69.0,-99.9,30.08,East,100,5.0,6.0,-999,-99.99,,,-99.99,,2013-08-11 17:40:00,
2013-08-11 13:07:00,69.0,-99.9,30.08,East,100,5.0,6.0,-999,-99.99,,,-99.99,,2013-08-11 18:07:00,
2013-08-11 13:19:00,69.0,-99.9,30.08,East,100,5.0,6.0,-999,-99.99,,,-99.99,,2013-08-11 18:19:00,
2013-08-11 13:30:00,69.0,-99.9,30.08,East,100,5.0,6.0,-999,-99.99,,,-99.99,,2013-08-11 18:30:00,
2013-08-11 13:58:00,68.0,-99.9,30.06,SE,140,12.0,23.0,-999,-99.99,,,-99.99,,2013-08-11 18:58:00,
2013-08-11 14:12:00,68.0,-99.9,30.05,SE,140,10.0,12.0,-999,-99.99,,,-99.99,,2013-08-11 19:12:00,
2013-08-11 14:27:00,68.0,-99.9,30.05,SE,140,10.0,12.0,-999,-99.99,,,-99.99,,2013-08-11 19:27:00,
2013-08-11 14:36:00,68.0,-99.9,30.05,SE,140,10.0,12.0,-999,-99.99,,,-99.99,,2013-08-11 19:36:00,
2013-08-11 14:40:00,69.0,-99.9,30.04,SSE,150,10.0,15.0,-999,-99.99,,,-99.99,,2013-08-11 19:40:00,
2013-08-11 15:20:00,69.0,-99.9,30.04,SSE,150,10.0,15.0,-999,-99.99,,,-99.99,,2013-08-11 20:20:00,
2013-08-11 15:28:00,69.0,-99.9,30.04,SSE,150,10.0,15.0,-999,-99.99,,,-99.99,,2013-08-11 20:28:00,
2013-08-11 16:09:00,71.0,-99.9,30.04,SE,140,9.0,17.0,-999,-99.99,,,-99.99,,2013-08-11 21:09:00,
2013-08-11 16:15:00,71.0,-99.9,30.04,SE,140,9.0,17.0,-999,-99.99,,,-99.99,,2013-08-11 21:15:00,
2013-08-11 16:28:00,71.0,-99.9,30.04,SE,140,9.0,17.0,-999,-99.99,,,-99.99,,2013-08-11 21:28:00,
2013-08-11 16:38:00,71.0,-99.9,30.04,SE,140,9.0,17.0,-999,-99.99,,,-99.99,,2013-08-11 21:38:00,
2013-08-11 16:40:00,71.0,-99.9,30.03,SSE,160,7.0,13.0,-999,-99.99,,,-99.99,,2013-08-11 21:40:00,
2013-08-11 17:06:00,71.0,-99.9,30.03,SSE,160,7.0,13.0,-999,-99.99,,,-99.99,,2013-08-11 22:06:00,
2013-08-11 17:17:00,71.0,-99.9,30.03,SSE,160,7.0,13.0,-999,-99.99,,,-99.99,,2013-08-11 22:17:00,
2013-08-11 17:37:00,71.0,-99.9,30.03,SSE,160,7.0,13.0,-999,-99.99,,,-99.99,,2013-08-11 22:37:00,
2013-08-11 17:40:00,70.0,-99.9,30.02,South,170,6.0,14.0,-999,-99.99,,,-99.99,,2013-08-11 22:40:00,
2013-08-11 18:08:00,70.0,-99.9,30.02,South,170,6.0,14.0,-999,-99.99,,,-99.99,,2013-08-11 23:08:00,
2013-08-11 18:18:00,70.0,-99.9,30.02,South,170,6.0,14.0,-999,-99.99,,,-99.99,,2013-08-11 23:18:00,
2013-08-11 18:30:00,70.0,-99.9,30.01,South,180,7.0,12.0,-999,-99.99,,,-99.99,,2013-08-11 23:30:00,
2013-08-11 18:31:00,70.0,-99.9,30.02,South,170,6.0,14.0,-999,-99.99,,,-99.99,,2013-08-11 23:31:00,
2013-08-11 18:38:00,70.0,-99.9,30.02,South,170,6.0,14.0,-999,-99.99,,,-99.99,,2013-08-11 23:38:00,
2013-08-11 19:19:00,70.0,-99.9,30.01,South,180,7.0,12.0,-999,-99.99,,,-99.99,,2013-08-12 00:19:00,
2013-08-11 19:26:00,70.0,-99.9,30.01,South,180,7.0,12.0,-999,-99.99,,,-99.99,,2013-08-12 00:26:00,
2013-08-11 19:40:00,67.0,-99.9,30.00,South,170,2.0,6.0,-999,-99.99,,,-99.99,,2013-08-12 00:40:00,
2013-08-11 20:40:00,65.0,-99.9,30.01,North,0,0.0,3.0,-999,-99.99,,,-99.99,,2013-08-12 01:40:00,
2013-08-11 21:09:00,65.0,-99.9,30.01,North,0,0.0,3.0,-999,-99.99,,,-99.99,,2013-08-12 02:09:00,
2013-08-11 21:16:00,65.0,-99.9,30.01,North,0,0.0,3.0,-999,-99.99,,,-99.99,,2013-08-12 02:16:00,
2013-08-11 21:40:00,63.0,-99.9,30.02,South,170,2.0,2.0,-999,-99.99,,,-99.99,,2013-08-12 02:40:00,
2013-08-11 22:10:00,63.0,-99.9,30.02,South,170,2.0,2.0,-999,-99.99,,,-99.99,,2013-08-12 03:10:00,
2013-08-11 22:17:00,63.0,-99.9,30.02,South,170,2.0,2.0,-999,-99.99,,,-99.99,,2013-08-12 03:17:00,
2013-08-11 22:26:00,63.0,-99.9,30.02,South,170,2.0,2.0,-999,-99.99,,,-99.99,,2013-08-12 03:26:00,
2013-08-11 22:39:00,63.0,-99.9,30.02,South,170,2.0,2.0,-999,-99.99,,,-99.99,,2013-08-12 03:39:00,
2013-08-11 22:40:00,63.0,-99.9,30.01,South,180,2.0,6.0,-999,-99.99,,,-99.99,,2013-08-12 03:40:00,
2013-08-11 23:02:00,63.0,-99.9,30.01,South,180,2.0,6.0,-999,-99.99,,,-99.99,,2013-08-12 04:02:00,
2013-08-11 23:12:00,63.0,-99.9,30.01,South,180,2.0,6.0,-999,-99.99,,,-99.99,,2013-08-12 04:12:00,
2013-08-11 23:22:00,63.0,-99.9,30.01,South,180,2.0,6.0,-999,-99.99,,,-99.99,,2013-08-12 04:22:00,
2013-08-11 23:33:00,63.0,-99.9,30.01,South,180,2.0,6.0,-999,-99.99,,,-99.99,,2013-08-12 04:33:00,
2013-08-11 23:40:00,62.0,-99.9,30.02,South,170,3.0,7.0,-999,-99.99,,,-99.99,,2013-08-12 04:40:00,